TimePDT,TemperatureF,Dew PointF,Humidity,Sea Level PressureIn,VisibilityMPH,Wind Direction,Wind SpeedMPH,Gust SpeedMPH,PrecipitationIn,Events,Conditions,WindDirDegrees,DateUTC
12:53 AM,64.0,45.0,50,29.91,10.0,Calm,Calm,-,N/A,,Clear,0,2013-08-01 07:53:00
1:53 AM,62.1,46.0,56,29.89,10.0,Calm,Calm,-,N/A,,Clear,0,2013-08-01 08:53:00
2:53 AM,63.0,44.1,50,29.88,10.0,NNE,3.5,-,N/A,,Clear,20,2013-08-01 09:53:00
3:53 AM,60.1,44.1,55,29.88,10.0,Calm,Calm,-,N/A,,Clear,0,2013-08-01 10:53:00
4:53 AM,57.9,46.0,65,29.87,10.0,Calm,Calm,-,N/A,,Clear,0,2013-08-01 11:53:00
5:53 AM,57.0,46.0,67,29.87,6.0,NE,3.5,-,N/A,,Haze,40,2013-08-01 12:53:00
6:53 AM,63.0,46.9,56,29.87,7.0,Calm,Calm,-,N/A,,Clear,0,2013-08-01 13:53:00
7:53 AM,66.9,46.9,49,29.87,10.0,West,3.5,-,N/A,,Clear,260,2013-08-01 14:53:00
8:53 AM,70.0,48.0,46,29.88,10.0,Calm,Calm,-,N/A,,Partly Cloudy,0,2013-08-01 15:53:00
9:53 AM,69.1,45.0,42,29.92,10.0,SSE,5.8,-,N/A,,Partly Cloudy,150,2013-08-01 16:53:00
10:53 AM,66.0,46.0,48,29.92,10.0,Calm,Calm,-,N/A,,Clear,0,2013-08-01 17:53:00
11:53 AM,69.1,48.0,47,29.92,10.0,Calm,Calm,-,N/A,,Clear,0,2013-08-01 18:53:00
12:53 PM,69.1,48.0,47,29.91,10.0,ENE,5.8,-,N/A,,Mostly Cloudy,60,2013-08-01 19:53:00
1:53 PM,70.0,48.0,46,29.93,10.0,Variable,4.6,-,N/A,,Mostly Cloudy,0,2013-08-01 20:53:00
2:53 PM,70.0,50.0,49,29.91,10.0,Calm,Calm,-,N/A,,Overcast,0,2013-08-01 21:53:00
3:53 PM,72.0,50.0,46,29.91,10.0,Calm,Calm,-,0.00,,Mostly Cloudy,0,2013-08-01 22:53:00
4:53 PM,75.0,48.9,40,29.89,10.0,West,5.8,-,N/A,,Partly Cloudy,260,2013-08-01 23:53:00
5:53 PM,75.0,48.9,40,29.88,10.0,WSW,5.8,-,N/A,,Clear,250,2013-08-02 00:53:00
6:53 PM,72.0,50.0,46,29.88,10.0,WSW,6.9,-,N/A,,Overcast,240,2013-08-02 01:53:00
7:53 PM,70.0,50.0,49,29.88,10.0,WSW,9.2,-,N/A,,Overcast,240,2013-08-02 02:53:00
8:53 PM,66.0,55.9,70,29.91,10.0,WSW,6.9,-,0.01,Rain,Light Rain,240,2013-08-02 03:53:00
9:53 PM,61.0,55.9,83,29.94,2.0,Calm,Calm,-,0.11,Rain,Heavy Rain,0,2013-08-02 04:53:00
10:07 PM,62.6,57.2,82,29.96,5.0,SSW,5.8,-,0.02,Rain,Light Rain,200,2013-08-02 05:07:00
10:53 PM,62.1,55.9,80,29.92,5.0,Calm,Calm,-,0.09,Rain,Rain,0,2013-08-02 05:53:00
11:53 PM,60.1,55.9,86,29.92,10.0,Calm,Calm,-,0.04,Rain,Light Rain,0,2013-08-02 06:53:00